DW6723 Weather Reports


Display with metric or nautical units.
time (UTC)temp
F
wind
direction
speed
MPH
gust
MPH
rain 1hr
in
rain 24hr
in
rain mn
in
humidity
%
barometer
mb
20260503014606 48 28 0.0 2.0 0.00 0.00 0.00 90 1010.8
20260503013040 48 26 1.0 3.0 0.00 0.00 0.00 90 1010.8
20260503011545 48 321 1.0 2.0 0.00 0.00 0.00 90 1010.7
20260503010018 49 20 2.0 5.0 0.00 0.00 0.00 89 1010.8
20260503004525 49 322 4.0 5.0 0.00 0.00 0.00 89 1010.8
20260503003001 49 355 4.0 5.0 0.00 0.00 0.00 88 1010.7
20260503001602 49 344 1.0 3.0 0.00 0.00 0.00 88 1010.6
20260503000059 49 360 2.0 4.0 0.00 0.00 0.00 87 1010.3
20260502234557 50 16 1.0 3.0 0.00 0.00 0.00 85 1010.3
20260502233056 50 53 1.0 3.0 0.00 0.00 0.00 84 1010.1
20260502231555 50 49 0.0 3.0 0.00 0.00 0.00 84 1010.1
20260502224607 50 338 4.0 10.0 0.00 0.00 0.00 82 1010.0
20260502223055 51 9 7.0 10.0 0.00 0.00 0.00 81 1010.0
20260502221550 52 9 6.0 8.0 0.00 0.00 0.00 78 1010.0
20260502214550 53 360 6.0 8.0 0.00 0.00 0.00 75 1009.8
20260502213100 54 345 7.0 9.0 0.00 0.00 0.00 70 1009.7
20260502211601 56 221 2.0 10.0 0.00 0.00 0.00 61 1009.7
20260502204523 56 230 10.0 15.0 0.00 0.00 0.00 64 1009.6
20260502203023 56 213 6.0 14.0 0.00 0.00 0.00 64 1009.7
20260502201510 56 201 4.0 13.0 0.00 0.00 0.00 62 1009.7
20260502200009 56 277 5.0 11.0 0.00 0.00 0.00 64 1009.7
20260502194506 56 153 9.0 16.0 0.00 0.00 0.00 62 1010.1
20260502193003 54 167 7.0 12.0 0.00 0.00 0.00 70 1010.2
20260502191604 53 126 8.0 12.0 0.00 0.00 0.00 78 1010.3
20260502190059 52 127 11.0 14.0 0.00 0.00 0.00 80 1010.4
20260502184600 51 120 6.0 9.0 0.00 0.00 0.00 83 1010.5
20260502183107 50 146 6.0 11.0 0.00 0.00 0.00 84 1010.7
20260502181543 49 116 7.0 12.0 0.00 0.00 0.00 83 1010.9
20260502163052 50 120 4.0 9.0 0.00 0.00 0.00 84 1011.7
20260502161527 50 129 7.0 10.0 0.00 0.00 0.00 83 1012.0
20260502151600 49 333 1.0 3.0 0.00 0.00 0.00 84 1011.7
20260502123003 45 321 5.0 8.0 0.00 0.00 0.00 83 1012.3
20260502121541 45 302 2.0 5.0 0.00 0.00 0.00 84 1012.5
20260502114525 46 255 3.0 5.0 0.00 0.00 0.00 80 1011.9
20260502113027 46 331 1.0 2.0 0.00 0.00 0.00 80 1011.4
20260502111524 46 324 1.0 6.0 0.00 0.00 0.00 82 1011.4
20260502110023 45 318 1.0 3.0 0.00 0.00 0.00 82 1011.2
20260502104525 45 249 0.0 4.0 0.00 0.00 0.00 82 1011.2
20260502103031 46 313 3.0 6.0 0.00 0.00 0.00 82 1011.4
20260502101541 46 272 2.0 4.0 0.00 0.00 0.00 82 1011.6
20260502090104 47 5 3.0 6.0 0.00 0.00 0.00 79 1010.8
20260502071532 46 328 0.0 2.0 0.00 0.00 0.00 77 1011.3
20260502070051 45 328 1.0 2.0 0.00 0.00 0.00 79 1011.2
20260502064514 45 321 2.0 4.0 0.00 0.00 0.00 80 1011.3
20260502063013 45 342 1.0 2.0 0.00 0.00 0.00 80 1011.2
20260502061554 45 32 0.0 2.0 0.00 0.00 0.00 78 1011.2
20260502060049 45 32 0.0 2.0 0.00 0.00 0.00 77 1011.3
20260502054530 46 32 0.0 2.0 0.00 0.00 0.00 78 1011.6
20260502053030 46 32 0.0 2.0 0.00 0.00 0.00 78 1011.4
20260502051512 47 32 0.0 1.0 0.00 0.00 0.00 76 1011.8
20260502050011 46 342 0.0 0.0 0.00 0.00 0.00 77 1011.8
20260502044553 46 345 0.0 1.0 0.00 0.00 0.00 75 1011.9
20260502043057 46 101 0.0 0.0 0.00 0.00 0.00 75 1011.7
20260502041535 46 174 0.0 0.0 0.00 0.00 0.00 68 1011.5
20260502040036 46 174 0.0 1.0 0.00 0.00 0.00 70 1011.5
20260502034522 46 174 0.0 0.0 0.00 0.00 0.00 67 1011.4
20260502033011 46 174 0.0 1.0 0.00 0.00 0.00 66 1011.4
20260502031551 46 197 0.0 0.0 0.00 0.00 0.00 62 1011.4
20260502030052 47 180 0.0 0.0 0.00 0.00 0.00 61 1011.3
20260502024539 47 180 0.0 0.0 0.00 0.00 0.00 60 1011.3
20260502023042 48 180 0.0 2.0 0.00 0.00 0.00 59 1011.3
20260502021533 48 180 0.0 2.0 0.00 0.00 0.00 64 1011.2
20260502020037 49 135 0.0 4.0 0.00 0.00 0.00 62 1011.2